This is the latest recevied weather packets stored in our database for station/object WI0K. If no packets are shown the sender has not sent any weather packets the latest 10 day(s).
| Time | Temp. | Humidity | Pressure | Rain* | Wind** | Luminosity | Snow |
|---|---|---|---|---|---|---|---|
| 1777768524 | 20.56° C | 11% | 1016.9 hPa | 0 mm | - | 42 W/m² | - |
| 1777768224 | 21.11° C | 11% | 830.1 hPa | 0 mm | - | 45 W/m² | - |
| 1777767923 | 21.11° C | 10% | 1016.9 hPa | 0 mm | - | 92 W/m² | - |
| 1777767622 | 21.11° C | 11% | 1017 hPa | 0 mm | - | 46 W/m² | - |
| 1777767321 | 21.11° C | 10% | 1017 hPa | 0 mm | - | 47 W/m² | - |
| 1777767021 | 21.11° C | 10% | 1017 hPa | 0 mm | - | 47 W/m² | - |
| 1777766720 | 21.11° C | 8% | 1017 hPa | 0 mm | - | 47 W/m² | - |
| 1777766419 | 21.11° C | 9% | 1017 hPa | 0 mm | - | 48 W/m² | - |
| 1777766119 | 21.11° C | 9% | 1017.1 hPa | 0 mm | - | 49 W/m² | - |
| 1777765819 | 21.11° C | 10% | 1017.1 hPa | 0 mm | - | 50 W/m² | - |
| 1777765518 | 21.11° C | 9% | 1017.2 hPa | 0 mm | - | 50 W/m² | - |
| 1777765217 | 21.11° C | 10% | 1017.2 hPa | 0 mm | - | 51 W/m² | - |
| 1777764917 | 21.11° C | 10% | 1017.4 hPa | 0 mm | - | 61 W/m² | - |
| 1777764616 | 21.11° C | 10% | 1017.4 hPa | 0 mm | - | 53 W/m² | - |
| 1777764315 | 21.11° C | 10% | 1017.2 hPa | 0 mm | - | 76 W/m² | - |
| 1777764015 | 20.56° C | 10% | 1017.4 hPa | 0 mm | - | 86 W/m² | - |
| 1777763714 | 20.56° C | 10% | 1017.4 hPa | 0 mm | - | 183 W/m² | - |
| 1777763413 | 20.56° C | 12% | 1017.4 hPa | 0 mm | - | 314 W/m² | - |
| 1777763113 | 20.56° C | 11% | 1017.5 hPa | 0 mm | - | 473 W/m² | - |
| 1777762812 | 20.56° C | 13% | 1017.5 hPa | 0 mm | - | 487 W/m² | - |
| 1777762511 | 20.56° C | 12% | 1017.6 hPa | 0 mm | - | 504 W/m² | - |
| 1777762211 | 21.11° C | 12% | 1017.6 hPa | 0 mm | - | 521 W/m² | - |
| 1777761910 | 20.56° C | 12% | 1017.6 hPa | 0 mm | - | 540 W/m² | - |
| 1777761610 | 21.11° C | 12% | 1017.7 hPa | 0 mm | - | 562 W/m² | - |
| 1777761309 | 21.11° C | 13% | 1017.8 hPa | 0 mm | - | 578 W/m² | - |
* Rain latest hour (hover to see other rain measurements)
** Current wind speed in m/s (hover to see current wind gust speed)